Home   Weather   Amsterdam   Past weeks

Flag for Netherlands Past Weather in Amsterdam, Netherlands — September 2017

Now
61 °F

Sprinkles. Scattered clouds.


Feels Like: 61 °F
Forecast: 55 / 69 °F
Wind: 3 mph from East

Location: Amsterdam Schiphol Airport

Current Time: May 22, 2018 at 8:13:39 am

Latest Report: May 22, 2018 at 7:25 am


Visibility: N/A

Pressure: 29.92 "Hg

Humidity: 77%

Dew Point: 54 °F

Location of AmsterdamLocation

September 2017 Weather in Amsterdam — Graph

°F

High & Low Weather Summary for September 2017

 TemperatureHumidityPressure
High73 °F (Sep 29, 3:55 pm)100% (Sep 1, 12:25 am)30.27 "Hg (Sep 1, 12:25 am)
Low43 °F (Sep 17, 6:55 am)52% (Sep 1, 7:25 pm)29.24 "Hg (Sep 13, 6:25 am)
Average58 °F84%29.91 "Hg
* Reported Sep 1 12:25 am — Sep 30 11:55 pm, Amsterdam. Weather by CustomWeather, © 2018

Note: Actual official high and low records may vary slightly from our data, if they occured in-between our weather recording intervals... More about our weather records

Advertising

Amsterdam Weather History for September 1, 2017

Scroll right to see more
 ConditionsComfort  
Time TempWeatherWind HumidityBarometerVisibility
12:25 am
Fri, Sep 1
52 °FClear.2 mph100%30.12 "Hg10 mi
12:55 am52 °FClear.3 mph94%30.12 "Hg10 mi
1:25 am50 °FClear.2 mph100%30.12 "Hg10 mi
1:55 am52 °FClear.2 mph94%30.12 "Hg10 mi
2:25 am50 °FFog.3 mph94%30.12 "HgN/A
2:55 am50 °FFog.2 mph94%30.12 "HgN/A
3:25 am52 °FFog.2 mph94%30.12 "HgN/A
3:55 am50 °FFog.1 mph100%30.12 "HgN/A
4:25 am50 °FFog.2 mph94%30.12 "HgN/A
4:55 am50 °FFog.1 mph100%30.12 "HgN/A
5:25 am48 °FFog.3 mph100%30.12 "HgN/A
5:55 am52 °FFog.1 mph94%30.12 "HgN/A
6:25 am50 °FFog.2 mph100%30.12 "HgN/A
6:55 am50 °FPassing clouds.3 mph94%30.12 "HgN/A
7:25 am52 °FPassing clouds.1 mph94%30.12 "HgN/A
7:55 am52 °FSunny.1 mph94%30.12 "Hg10 mi
8:25 am54 °FSunny.1 mph94%30.12 "Hg10 mi
8:55 am57 °FSunny.2 mph88%30.12 "Hg10 mi
9:25 am59 °FSunny.2 mph82%30.12 "Hg10 mi
9:55 am63 °FSunny.2 mph68%30.15 "Hg10 mi
10:25 am64 °FPassing clouds.3 mph64%30.15 "HgN/A
10:55 am64 °FPassing clouds.5 mph64%30.15 "HgN/A
11:25 am64 °FPassing clouds.3 mph64%30.15 "HgN/A
11:55 am64 °FPassing clouds.3 mph68%30.15 "HgN/A
12:25 pm66 °FScattered clouds.3 mph60%30.15 "HgN/A
12:55 pm66 °FScattered clouds.3 mph64%30.15 "HgN/A
1:25 pm64 °FScattered clouds.5 mph60%30.12 "HgN/A
1:55 pm64 °FScattered clouds.6 mph64%30.12 "HgN/A
2:25 pm64 °FSprinkles. Scattered clouds.9 mph60%30.12 "HgN/A
2:55 pm64 °FSprinkles. Passing clouds.5 mph60%30.12 "Hg6 mi
3:25 pm61 °FSprinkles. Passing clouds.8 mph77%30.12 "HgN/A
3:55 pm61 °FSprinkles. Passing clouds.6 mph72%30.12 "HgN/A
4:25 pm63 °FSprinkles. Passing clouds.3 mph73%30.12 "HgN/A
4:55 pm61 °FScattered showers. Passing clouds.3 mph77%30.12 "HgN/A
5:25 pm63 °FPassing clouds.3 mph73%30.12 "HgN/A
5:55 pm64 °FPassing clouds.5 mph64%30.12 "HgN/A
6:25 pm64 °FPassing clouds.3 mph68%30.12 "HgN/A
6:55 pm64 °FPassing clouds.3 mph56%30.12 "HgN/A
7:25 pm63 °FPassing clouds.7 mph52%30.12 "HgN/A
7:55 pm61 °FPassing clouds.6 mph63%30.12 "HgN/A
8:25 pm59 °FPassing clouds.5 mph68%30.12 "HgN/A
8:55 pm61 °FPassing clouds.8 mph63%30.12 "HgN/A
9:25 pm61 °FPassing clouds.7 mph63%30.15 "HgN/A
9:55 pm59 °FPassing clouds.6 mph72%30.15 "HgN/A
10:55 pm59 °FClear.6 mph77%30.15 "Hg10 mi
11:25 pm59 °FClear.6 mph77%30.15 "Hg10 mi
11:55 pm57 °FClear.6 mph82%30.15 "Hg10 mi
Weather by CustomWeather, © 2018

See weather overview